704  
ASUS43 KGLD 291508  
RWRGLD  
 
GOODLAND FORECAST AREA HOURLY WEATHER ROUNDUP  
NATIONAL WEATHER SERVICE GOODLAND KS  
900 AM MDT MON MAY 29 2017  
   
..OFFICIAL OBSERVATIONS
 
 
 
CITY SKY/WX TMP DP RH WIND PRES REMARKS
 
GOODLAND KS MOSUNNY 62 47 57 N15 30.19R  
HILL CITY KS SUNNY 68 50 52 N13 30.12S  
IMPERIAL NEB SUNNY 64 45 49 N13 30.17S  
MCCOOK NEB SUNNY 66 47 50 NW9 30.14R  
AKRON CO CLOUDY 59 43 55 N9 30.25S  
BURLINGTON CO SUNNY 64 44 48 N13 30.22S  
LIMON CO MOSUNNY 59 42 53 VRB7 30.28S  

 
   
..UNOFFICIAL OBSERVATIONS
 
 
 
CITY SKY/WX TMP DP RH WIND PRES REMARKS
 
LENORA KS N/A 65 32 29 MISG N/A  
NORTON KS SUNNY 64 46 52 NW10 30.12R  
SHARON SPRINGS N/A 64 48 57 NE10 N/A  
TRENTON NEB N/A 63 32 31 N6 N/A  
KIT CARSON CO N/A 64 42 44 MISG N/A  
YUMA CO PTSUNNY 63 32 31 N10 30.22S  

 
 
 
CLICK HERE TO GO TO PREVIOUS BULLETINS.

The Nexlab KS Page
The Nexlab CO Page
The Nexlab NE Page Main Text Page